Time,TemperatureF,DewpointF,PressureIn,WindDirection,WindDirectionDegrees,WindSpeedMPH,WindSpeedGustMPH,Humidity,HourlyPrecipIn,Conditions,Clouds,dailyrainin,SoftwareType,DateUTC
2013-03-28 00:11:00,54.5,53.1,29.84,ESE,112,0.0,-999.0,95,-99.99,,,0.00,Acu-Link.com,2013-03-28 07:11:00,
2013-03-28 00:42:00,54.5,53.4,29.84,NNW,337,2.7,-999.0,96,-99.99,,,0.00,Acu-Link.com,2013-03-28 07:42:00,
2013-03-28 00:57:00,54.5,53.4,29.84,ESE,112,1.7,-999.0,96,-99.99,,,0.00,Acu-Link.com,2013-03-28 07:57:00,
2013-03-28 01:13:00,54.3,53.2,29.84,East,90,0.0,-999.0,96,-99.99,,,0.00,Acu-Link.com,2013-03-28 08:13:00,
2013-03-28 01:28:00,54.1,53.0,29.84,SE,135,0.0,-999.0,96,-99.99,,,0.00,Acu-Link.com,2013-03-28 08:28:00,
2013-03-28 01:43:00,54.1,53.0,29.84,NE,45,0.0,-999.0,96,-99.99,,,0.00,Acu-Link.com,2013-03-28 08:43:00,
2013-03-28 01:58:00,54.3,53.2,29.84,WNW,292,2.7,-999.0,96,-99.99,,,0.00,Acu-Link.com,2013-03-28 08:58:00,
2013-03-28 02:14:00,54.3,53.2,29.85,WNW,292,3.7,-999.0,96,-99.99,,,0.00,Acu-Link.com,2013-03-28 09:14:00,
2013-03-28 02:29:00,54.5,53.4,29.84,SE,135,2.7,-999.0,96,-99.99,,,0.00,Acu-Link.com,2013-03-28 09:29:00,
2013-03-28 02:44:00,54.5,53.1,29.84,ESE,112,2.2,-999.0,95,-99.99,,,0.00,Acu-Link.com,2013-03-28 09:44:00,
2013-03-28 02:59:00,54.5,53.1,29.84,WNW,292,2.2,-999.0,95,-99.99,,,0.00,Acu-Link.com,2013-03-28 09:59:00,
2013-03-28 03:14:00,54.5,53.1,29.84,East,90,0.0,-999.0,95,-99.99,,,0.00,Acu-Link.com,2013-03-28 10:14:00,
2013-03-28 03:30:00,54.1,52.7,29.83,East,90,0.0,-999.0,95,-99.99,,,0.00,Acu-Link.com,2013-03-28 10:30:00,
2013-03-28 03:45:00,53.8,52.7,29.83,WNW,292,0.0,-999.0,96,-99.99,,,0.00,Acu-Link.com,2013-03-28 10:45:00,
2013-03-28 04:00:00,53.8,52.7,29.84,WSW,247,0.0,-999.0,96,-99.99,,,0.00,Acu-Link.com,2013-03-28 11:00:00,
2013-03-28 04:16:00,53.8,52.7,29.83,NW,315,0.0,-999.0,96,-99.99,,,0.00,Acu-Link.com,2013-03-28 11:16:00,
2013-03-28 04:31:00,54.0,52.9,29.83,ESE,112,0.0,-999.0,96,-99.99,,,0.00,Acu-Link.com,2013-03-28 11:31:00,
2013-03-28 04:46:00,54.1,53.0,29.84,NW,315,1.7,-999.0,96,-99.99,,,0.00,Acu-Link.com,2013-03-28 11:46:00,
2013-03-28 05:02:00,54.3,52.9,29.84,WNW,292,0.0,-999.0,95,-99.99,,,0.00,Acu-Link.com,2013-03-28 12:02:00,
2013-03-28 05:17:00,54.3,52.9,29.84,East,90,0.0,-999.0,95,-99.99,,,0.00,Acu-Link.com,2013-03-28 12:17:00,
2013-03-28 05:32:00,54.1,53.0,29.84,WNW,292,2.2,-999.0,96,-99.99,,,0.00,Acu-Link.com,2013-03-28 12:32:00,
2013-03-28 05:47:00,54.1,53.0,29.84,WSW,247,0.0,-999.0,96,-99.99,,,0.00,Acu-Link.com,2013-03-28 12:47:00,
2013-03-28 06:02:00,54.1,53.0,29.84,North,0,2.7,-999.0,96,-99.99,,,0.00,Acu-Link.com,2013-03-28 13:02:00,
2013-03-28 06:18:00,54.0,53.2,29.85,SW,225,2.7,-999.0,97,-99.99,,,0.00,Acu-Link.com,2013-03-28 13:18:00,
2013-03-28 06:33:00,54.0,53.2,29.84,West,270,0.0,-999.0,97,-99.99,,,0.00,Acu-Link.com,2013-03-28 13:33:00,
2013-03-28 06:48:00,54.0,53.2,29.84,West,270,1.7,-999.0,97,-99.99,,,0.00,Acu-Link.com,2013-03-28 13:48:00,
2013-03-28 07:04:00,54.0,53.2,29.85,North,0,0.0,-999.0,97,-99.99,,,0.00,Acu-Link.com,2013-03-28 14:04:00,
2013-03-28 07:19:00,54.1,53.3,29.85,West,270,0.0,-999.0,97,-99.99,,,0.00,Acu-Link.com,2013-03-28 14:19:00,
2013-03-28 07:34:00,54.5,53.7,29.86,NNW,337,0.0,-999.0,97,-99.99,,,0.00,Acu-Link.com,2013-03-28 14:34:00,
2013-03-28 07:49:00,54.7,53.9,29.88,NW,315,2.7,-999.0,97,-99.99,,,0.00,Acu-Link.com,2013-03-28 14:49:00,
2013-03-28 08:05:00,55.2,54.4,29.88,WNW,292,1.1,-999.0,97,-99.99,,,0.00,Acu-Link.com,2013-03-28 15:05:00,
2013-03-28 08:20:00,55.4,54.3,29.88,West,270,2.2,-999.0,96,-99.99,,,0.00,Acu-Link.com,2013-03-28 15:20:00,
2013-03-28 08:35:00,55.8,54.4,29.89,WNW,292,3.2,-999.0,95,-99.99,,,0.00,Acu-Link.com,2013-03-28 15:35:00,
2013-03-28 08:50:00,55.9,54.2,29.89,West,270,1.7,-999.0,94,-99.99,,,0.00,Acu-Link.com,2013-03-28 15:50:00,
2013-03-28 09:06:00,56.5,54.2,29.89,NNW,337,0.0,-999.0,92,-99.99,,,0.00,Acu-Link.com,2013-03-28 16:06:00,
2013-03-28 09:21:00,58.3,54.1,29.89,West,270,3.2,-999.0,86,-99.99,,,0.00,Acu-Link.com,2013-03-28 16:21:00,
2013-03-28 09:37:00,58.5,53.7,29.89,WNW,292,4.7,-999.0,84,-99.99,,,0.00,Acu-Link.com,2013-03-28 16:37:00,
2013-03-28 09:52:00,58.8,53.6,29.89,West,270,3.2,-999.0,83,-99.99,,,0.00,Acu-Link.com,2013-03-28 16:52:00,
2013-03-28 10:08:00,59.7,53.9,29.89,NNE,22,0.0,-999.0,81,-99.99,,,0.00,Acu-Link.com,2013-03-28 17:08:00,
2013-03-28 10:23:00,59.7,54.2,29.89,WNW,292,0.0,-999.0,82,-99.99,,,0.00,Acu-Link.com,2013-03-28 17:23:00,
2013-03-28 10:38:00,60.1,53.9,29.89,SW,225,0.0,-999.0,80,-99.99,,,0.00,Acu-Link.com,2013-03-28 17:38:00,
2013-03-28 10:53:00,60.8,53.5,29.89,East,90,2.7,-999.0,77,-99.99,,,0.00,Acu-Link.com,2013-03-28 17:53:00,
2013-03-28 11:09:00,61.5,54.2,29.89,East,90,3.7,-999.0,77,-99.99,,,0.00,Acu-Link.com,2013-03-28 18:09:00,
2013-03-28 11:24:00,62.4,54.4,29.90,ESE,112,1.7,-999.0,75,-99.99,,,0.00,Acu-Link.com,2013-03-28 18:24:00,
2013-03-28 11:40:00,63.3,53.3,29.90,NNW,337,1.1,-999.0,70,-99.99,,,0.00,Acu-Link.com,2013-03-28 18:40:00,
2013-03-28 11:55:00,64.6,53.4,29.90,South,180,2.7,-999.0,67,-99.99,,,0.00,Acu-Link.com,2013-03-28 18:55:00,
2013-03-28 12:10:00,64.2,53.0,29.89,NNE,22,2.7,-999.0,67,-99.99,,,0.00,Acu-Link.com,2013-03-28 19:10:00,
2013-03-28 12:25:00,66.7,53.3,29.89,East,90,2.2,-999.0,62,-99.99,,,0.00,Acu-Link.com,2013-03-28 19:25:00,
2013-03-28 12:41:00,64.9,52.0,29.89,East,90,0.0,-999.0,63,-99.99,,,0.00,Acu-Link.com,2013-03-28 19:41:00,
2013-03-28 13:11:00,66.0,52.2,29.90,West,270,0.0,-999.0,61,-99.99,,,0.00,Acu-Link.com,2013-03-28 20:11:00,
2013-03-28 13:27:00,66.6,54.5,29.89,NW,315,2.7,-999.0,65,-99.99,,,0.00,Acu-Link.com,2013-03-28 20:27:00,
2013-03-28 13:42:00,67.8,53.9,29.89,West,270,4.2,-999.0,61,-99.99,,,0.00,Acu-Link.com,2013-03-28 20:42:00,
2013-03-28 13:57:00,66.2,54.1,29.89,North,0,4.7,-999.0,65,-99.99,,,0.00,Acu-Link.com,2013-03-28 20:57:00,
2013-03-28 14:13:00,63.9,53.5,29.89,NW,315,4.2,-999.0,69,-99.99,,,0.00,Acu-Link.com,2013-03-28 21:13:00,
2013-03-28 14:28:00,63.9,53.5,29.88,NW,315,4.2,-999.0,69,-99.99,,,0.00,Acu-Link.com,2013-03-28 21:28:00,
2013-03-28 14:43:00,65.5,53.8,29.88,NE,45,4.7,-999.0,66,-99.99,,,0.00,Acu-Link.com,2013-03-28 21:43:00,
2013-03-28 14:59:00,66.9,54.3,29.87,SSW,202,5.8,-999.0,64,-99.99,,,0.00,Acu-Link.com,2013-03-28 21:59:00,
2013-03-28 15:14:00,67.1,54.1,29.87,ESE,112,3.7,-999.0,63,-99.99,,,0.00,Acu-Link.com,2013-03-28 22:14:00,
2013-03-28 15:29:00,66.0,53.5,29.86,North,0,3.2,-999.0,64,-99.99,,,0.00,Acu-Link.com,2013-03-28 22:29:00,
2013-03-28 15:44:00,65.1,53.9,29.86,SE,135,0.0,-999.0,67,-99.99,,,0.00,Acu-Link.com,2013-03-28 22:44:00,
2013-03-28 15:59:00,66.6,54.0,29.86,North,0,6.3,-999.0,64,-99.99,,,0.00,Acu-Link.com,2013-03-28 22:59:00,
2013-03-28 16:14:00,65.3,53.2,29.86,North,0,8.9,-999.0,65,-99.99,,,0.00,Acu-Link.com,2013-03-28 23:14:00,
2013-03-28 16:30:00,64.9,53.3,29.87,West,270,6.3,-999.0,66,-99.99,,,0.00,Acu-Link.com,2013-03-28 23:30:00,
2013-03-28 16:45:00,64.8,53.2,29.86,WNW,292,5.8,-999.0,66,-99.99,,,0.00,Acu-Link.com,2013-03-28 23:45:00,
2013-03-28 17:00:00,64.8,53.2,29.86,North,0,7.8,-999.0,66,-99.99,,,0.00,Acu-Link.com,2013-03-29 00:00:00,
2013-03-28 17:15:00,63.9,53.1,29.86,NW,315,5.3,-999.0,68,-99.99,,,0.00,Acu-Link.com,2013-03-29 00:15:00,
2013-03-28 17:30:00,63.1,52.8,29.86,WSW,247,2.7,-999.0,69,-99.99,,,0.00,Acu-Link.com,2013-03-29 00:30:00,
2013-03-28 17:45:00,63.3,53.0,29.86,NNE,22,4.2,-999.0,69,-99.99,,,0.00,Acu-Link.com,2013-03-29 00:45:00,
2013-03-28 18:00:00,63.5,52.7,29.86,WNW,292,3.2,-999.0,68,-99.99,,,0.00,Acu-Link.com,2013-03-29 01:00:00,
2013-03-28 18:15:00,64.6,52.6,29.86,NNW,337,6.8,-999.0,65,-99.99,,,0.00,Acu-Link.com,2013-03-29 01:15:00,
2013-03-28 18:46:00,59.7,51.8,29.87,NNW,337,5.3,-999.0,75,-99.99,,,0.00,Acu-Link.com,2013-03-29 01:46:00,
2013-03-28 19:17:00,58.1,51.6,29.87,NE,45,2.2,-999.0,79,-99.99,,,0.00,Acu-Link.com,2013-03-29 02:17:00,
2013-03-28 19:32:00,57.4,51.3,29.88,NNE,22,5.3,-999.0,80,-99.99,,,0.00,Acu-Link.com,2013-03-29 02:32:00,
2013-03-28 19:47:00,56.8,51.0,29.88,WNW,292,3.7,-999.0,81,-99.99,,,0.00,Acu-Link.com,2013-03-29 02:47:00,
2013-03-28 20:02:00,56.5,51.1,29.88,WSW,247,6.3,-999.0,82,-99.99,,,0.00,Acu-Link.com,2013-03-29 03:02:00,
2013-03-28 20:32:00,56.3,51.5,29.89,West,270,3.2,-999.0,84,-99.99,,,0.00,Acu-Link.com,2013-03-29 03:32:00,
2013-03-28 20:47:00,55.9,51.1,29.89,West,270,5.8,-999.0,84,-99.99,,,0.00,Acu-Link.com,2013-03-29 03:47:00,
2013-03-28 21:03:00,55.6,51.5,29.89,WNW,292,2.2,-999.0,86,-99.99,,,0.00,Acu-Link.com,2013-03-29 04:03:00,
2013-03-28 21:18:00,55.4,51.6,29.90,WNW,292,3.2,-999.0,87,-99.99,,,0.00,Acu-Link.com,2013-03-29 04:18:00,
2013-03-28 21:33:00,55.4,51.9,29.90,South,180,1.7,-999.0,88,-99.99,,,0.00,Acu-Link.com,2013-03-29 04:33:00,
2013-03-28 21:48:00,55.2,52.0,29.91,WNW,292,0.0,-999.0,89,-99.99,,,0.00,Acu-Link.com,2013-03-29 04:48:00,
2013-03-28 22:03:00,54.9,52.0,29.92,West,270,2.2,-999.0,90,-99.99,,,0.00,Acu-Link.com,2013-03-29 05:03:00,
2013-03-28 22:18:00,54.3,51.7,29.91,WNW,292,0.0,-999.0,91,-99.99,,,0.00,Acu-Link.com,2013-03-29 05:18:00,
2013-03-28 22:33:00,54.0,51.7,29.92,NNE,22,0.0,-999.0,92,-99.99,,,0.00,Acu-Link.com,2013-03-29 05:33:00,
2013-03-28 22:49:00,53.8,51.8,29.92,NNW,337,0.0,-999.0,93,-99.99,,,0.00,Acu-Link.com,2013-03-29 05:49:00,
2013-03-28 23:04:00,53.8,51.8,29.91,NW,315,0.0,-999.0,93,-99.99,,,0.00,Acu-Link.com,2013-03-29 06:04:00,
2013-03-28 23:19:00,53.4,51.7,29.91,NNW,337,0.0,-999.0,94,-99.99,,,0.00,Acu-Link.com,2013-03-29 06:19:00,
2013-03-28 23:35:00,53.2,51.5,29.91,NW,315,0.0,-999.0,94,-99.99,,,0.00,Acu-Link.com,2013-03-29 06:35:00,
2013-03-28 23:50:00,53.2,51.5,29.91,NE,45,3.7,-999.0,94,-99.99,,,0.00,Acu-Link.com,2013-03-29 06:50:00,